Pagina principale
METAR-TAF:

METAR-TAF

Aeroporti :

Alpnach, Svizzera

latitudine: 46-56-19N, longitudine: 8-17-03E, altezza: 440 m

Osservazione

Il bollettino è stato emesso 11 minuti fa, alle 13:20 UTC
Vento 4 kt da nord-est
Temperature 4°C
Umidità 52%
Pressione 1032 hPa
Visibilità 10 km o più
Poco nuvoloso ad un'altezza di 5000 ft

METAR: LSMA 091320Z 05004KT 9999 FEW050 04/M05 Q1032 RMK BLU+

Ora: 14:31 (13:31 UTC)


TAF: mancante

Osservazioni e previsioni meteorologiche di più di 4000 aeroporti (messaggi METAR e TAF).

Le stazioni disponibili sono rappresentate dai dischi gialli e rossi sulla carta.

Puntare il mouse per vedere il nome della stazione.

Clicca sopra per visualizzare le osservazioni e previsioni meteorologiche.

Per cambiare la mappa : fare clic sui pulsanti verdi con una croce nera per ingrandire, il pulsante verde con un trattino per diminuire, o sulla freccia verde per le mappe adiacenti.


METAR-TAF: